When you browse on this site, cookies collect data to enhance your experience and personalize the content and advertising you see.
Visit our Privacy Policy to learn more. By continuing to use the site, you agree to this use of cookies and data.
  • In Slovakia
  • List of Countries
  • For 7 days
  • Water Temperature
  • Weather Map
  • Weather Widgets
  • user-avatar
    Login

    Hourly Weather Mons

    Today, 16 December, Monday

    Time Temperature Precipitation Wind Pressure Humidity
    00:00 +6°C° 0 mm 5 mps 752 mmHg 92%
    01:00 +6°C° 0 mm 5 mps 751 mmHg 92%
    02:00 +6°C° 0 mm 5 mps 751 mmHg 92%
    03:00 +6°C° 0 mm 5 mps 751 mmHg 93%
    04:00 +6°C° 0 mm 5 mps 751 mmHg 92%
    05:00 +6°C° 0 mm 5 mps 750 mmHg 92%
    06:00 +7°C° 0 mm 5 mps 750 mmHg 91%
    07:00 +7°C° 0.2 mm 5 mps 750 mmHg 91%
    08:00 +7°C° 0.2 mm 5 mps 750 mmHg 90%
    09:00 +8°C° 0.2 mm 5 mps 751 mmHg 90%
    10:00 +8°C° 0.3 mm 4 mps 750 mmHg 92%
    11:00 +8°C° 0.3 mm 3 mps 750 mmHg 93%
    12:00 +8°C° 0.3 mm 2 mps 750 mmHg 95%
    13:00 +8°C° 0.5 mm 2 mps 750 mmHg 95%
    14:00 +8°C° 0.5 mm 2 mps 749 mmHg 95%
    15:00 +9°C° 0.5 mm 1 mps 749 mmHg 96%
    16:00 +8°C° 0.1 mm 2 mps 749 mmHg 95%
    17:00 +8°C° 0.1 mm 2 mps 749 mmHg 94%
    18:00 +8°C° 0.1 mm 3 mps 748 mmHg 94%
    19:00 +8°C° 0 mm 3 mps 748 mmHg 93%
    20:00 +8°C° 0 mm 3 mps 748 mmHg 92%
    21:00 +8°C° 0 mm 4 mps 748 mmHg 91%
    22:00 +8°C° 0 mm 4 mps 747 mmHg 90%
    23:00 +8°C° 0 mm 4 mps 747 mmHg 88%

    Tomorrow, 17 December, Tuesday

    Time Temperature Precipitation Wind Pressure Humidity
    00:00 +9°C° 0 mm 5 mps 747 mmHg 87%
    01:00 +9°C° 0 mm 5 mps 747 mmHg 86%
    02:00 +9°C° 0 mm 5 mps 747 mmHg 84%
    03:00 +10°C° 0 mm 6 mps 747 mmHg 82%
    04:00 +10°C° 0 mm 6 mps 747 mmHg 81%
    05:00 +10°C° 0 mm 6 mps 747 mmHg 79%
    06:00 +10°C° 0 mm 6 mps 747 mmHg 77%
    07:00 +10°C° 0 mm 6 mps 747 mmHg 77%
    08:00 +10°C° 0 mm 6 mps 747 mmHg 77%
    09:00 +10°C° 0 mm 6 mps 747 mmHg 78%
    10:00 +11°C° 0 mm 7 mps 747 mmHg 74%
    11:00 +12°C° 0 mm 7 mps 747 mmHg 71%
    12:00 +13°C° 0 mm 8 mps 747 mmHg 67%
    13:00 +14°C° 0 mm 7 mps 747 mmHg 70%
    14:00 +13°C° 0 mm 6 mps 748 mmHg 73%
    15:00 +13°C° 0 mm 6 mps 748 mmHg 76%
    16:00 +12°C° 0 mm 5 mps 748 mmHg 79%
    17:00 +12°C° 0 mm 5 mps 749 mmHg 82%
    18:00 +10°C° 0 mm 5 mps 749 mmHg 86%
    19:00 +11°C° 1.4 mm 4 mps 750 mmHg 89%
    20:00 +10°C° 1.4 mm 4 mps 750 mmHg 92%
    21:00 +10°C° 1.4 mm 4 mps 751 mmHg 95%
    22:00 +9°C° 2.3 mm 3 mps 751 mmHg 94%
    23:00 +9°C° 2.3 mm 2 mps 752 mmHg 94%

    Day after tomorrow, 18 December, Wednesday

    Time Temperature Precipitation Wind Pressure Humidity
    00:00 +8°C° 2.3 mm 2 mps 752 mmHg 94%
    01:00 +9°C° 0.1 mm 1 mps 753 mmHg 94%
    02:00 +9°C° 0.1 mm 1 mps 753 mmHg 94%
    03:00 +8°C° 0.1 mm 0 mps 753 mmHg 93%
    04:00 +8°C° 0 mm 0 mps 754 mmHg 94%
    05:00 +7°C° 0 mm 0 mps 754 mmHg 94%
    06:00 +7°C° 0 mm 0 mps 754 mmHg 94%
    07:00 +7°C° 0 mm 0 mps 755 mmHg 93%
    08:00 +8°C° 0 mm 1 mps 755 mmHg 93%
    09:00 +8°C° 0 mm 1 mps 755 mmHg 92%
    10:00 +9°C° 0 mm 1 mps 755 mmHg 90%
    11:00 +9°C° 0 mm 1 mps 755 mmHg 88%
    12:00 +9°C° 0 mm 2 mps 755 mmHg 86%
    13:00 +9°C° 0 mm 2 mps 755 mmHg 88%
    14:00 +9°C° 0 mm 2 mps 754 mmHg 90%
    15:00 +9°C° 0 mm 2 mps 754 mmHg 92%
    16:00 +9°C° 0 mm 2 mps 754 mmHg 93%
    17:00 +9°C° 0 mm 2 mps 754 mmHg 94%
    18:00 +9°C° 0 mm 2 mps 753 mmHg 95%
    19:00 +9°C° 0 mm 2 mps 753 mmHg 94%
    20:00 +9°C° 0 mm 3 mps 753 mmHg 94%
    21:00 +9°C° 0 mm 3 mps 753 mmHg 94%
    22:00 +8°C° 0 mm 4 mps 752 mmHg 92%
    23:00 +8°C° 0 mm 4 mps 752 mmHg 90%

    19 December, Thursday

    Time Temperature Precipitation Wind Pressure Humidity
    00:00 +9°C° 0 mm 5 mps 751 mmHg 88%
    01:00 +9°C° 0 mm 5 mps 751 mmHg 86%
    02:00 +9°C° 0 mm 6 mps 751 mmHg 84%
    03:00 +9°C° 0 mm 6 mps 750 mmHg 81%
    04:00 +9°C° 0 mm 6 mps 750 mmHg 81%
    05:00 +9°C° 0 mm 6 mps 750 mmHg 81%
    06:00 +9°C° 0 mm 6 mps 750 mmHg 81%
    07:00 +9°C° 0.1 mm 6 mps 750 mmHg 81%
    08:00 +9°C° 0.1 mm 6 mps 750 mmHg 81%
    09:00 +9°C° 0.1 mm 6 mps 750 mmHg 81%
    10:00 +9°C° 0.1 mm 6 mps 750 mmHg 82%
    11:00 +9°C° 0.1 mm 5 mps 750 mmHg 83%
    12:00 +10°C° 0.1 mm 5 mps 750 mmHg 84%
    13:00 +9°C° 0.3 mm 5 mps 749 mmHg 86%
    14:00 +10°C° 0.3 mm 4 mps 749 mmHg 88%
    15:00 +10°C° 0.3 mm 4 mps 749 mmHg 89%
    16:00 +10°C° 0.3 mm 4 mps 748 mmHg 89%
    17:00 +10°C° 0.3 mm 4 mps 748 mmHg 89%
    18:00 +10°C° 0.3 mm 4 mps 747 mmHg 89%
    19:00 +9°C° 0.1 mm 5 mps 746 mmHg 87%
    20:00 +10°C° 0.1 mm 6 mps 746 mmHg 84%
    21:00 +10°C° 0.1 mm 6 mps 745 mmHg 82%
    22:00 +10°C° 0.2 mm 7 mps 745 mmHg 82%
    23:00 +10°C° 0.2 mm 8 mps 744 mmHg 82%

    20 December, Friday

    Time Temperature Precipitation Wind Pressure Humidity
    00:00 +9°C° 0.2 mm 8 mps 743 mmHg 83%
    01:00 +9°C° 0.1 mm 8 mps 743 mmHg 84%
    02:00 +9°C° 0.1 mm 7 mps 743 mmHg 86%
    03:00 +10°C° 0.1 mm 7 mps 743 mmHg 87%
    04:00 +9°C° 0 mm 6 mps 743 mmHg 89%
    05:00 +8°C° 0 mm 5 mps 743 mmHg 90%
    06:00 +8°C° 0 mm 3 mps 743 mmHg 92%
    07:00 +8°C° 0 mm 3 mps 743 mmHg 92%
    08:00 +7°C° 0 mm 3 mps 743 mmHg 93%
    09:00 +7°C° 0 mm 3 mps 743 mmHg 93%
    10:00 +8°C° 0 mm 2 mps 743 mmHg 90%
    11:00 +9°C° 0 mm 2 mps 742 mmHg 87%
    12:00 +9°C° 0 mm 2 mps 741 mmHg 84%
    13:00 +9°C° 0 mm 2 mps 741 mmHg 85%
    14:00 +9°C° 0 mm 2 mps 740 mmHg 86%
    15:00 +9°C° 0 mm 2 mps 740 mmHg 87%
    16:00 +9°C° 1.2 mm 3 mps 740 mmHg 89%
    17:00 +9°C° 1.2 mm 3 mps 740 mmHg 91%
    18:00 +8°C° 1.2 mm 4 mps 740 mmHg 92%
    19:00 +8°C° 0.9 mm 4 mps 740 mmHg 93%
    20:00 +8°C° 0.9 mm 3 mps 739 mmHg 93%
    21:00 +8°C° 0.9 mm 3 mps 739 mmHg 93%
    22:00 +8°C° 0.5 mm 3 mps 739 mmHg 94%
    23:00 +8°C° 0.5 mm 3 mps 740 mmHg 94%

    21 December, Saturday

    Time Temperature Precipitation Wind Pressure Humidity
    00:00 +8°C° 0.5 mm 3 mps 740 mmHg 94%
    01:00 +7°C° 0.4 mm 4 mps 740 mmHg 93%
    02:00 +7°C° 0.4 mm 4 mps 740 mmHg 93%
    03:00 +7°C° 0.4 mm 5 mps 740 mmHg 92%
    04:00 +7°C° 0.3 mm 6 mps 741 mmHg 91%
    05:00 +7°C° 0.3 mm 6 mps 741 mmHg 91%
    06:00 +7°C° 0.3 mm 6 mps 742 mmHg 90%
    07:00 +6°C° 1.2 mm 7 mps 743 mmHg 90%
    08:00 +6°C° 1.2 mm 7 mps 743 mmHg 90%
    09:00 +6°C° 1.2 mm 7 mps 744 mmHg 91%
    10:00 +6°C° 0.8 mm 7 mps 745 mmHg 89%
    11:00 +7°C° 0.8 mm 6 mps 745 mmHg 87%
    12:00 +7°C° 0.8 mm 6 mps 746 mmHg 85%
    13:00 +7°C° 0.1 mm 5 mps 747 mmHg 85%
    14:00 +7°C° 0.1 mm 4 mps 747 mmHg 86%
    15:00 +7°C° 0.1 mm 4 mps 748 mmHg 86%
    16:00 +7°C° 0 mm 4 mps 749 mmHg 89%
    17:00 +7°C° 0 mm 3 mps 750 mmHg 91%
    18:00 +5°C° 0 mm 3 mps 750 mmHg 93%
    19:00 +5°C° 0 mm 3 mps 751 mmHg 93%
    20:00 +5°C° 0 mm 3 mps 751 mmHg 94%
    21:00 +4°C° 0 mm 3 mps 752 mmHg 95%
    22:00 +4°C° 0 mm 4 mps 752 mmHg 95%
    23:00 +4°C° 0 mm 4 mps 752 mmHg 94%
    Show more